MUNICIPIO DE SENADOR ELOI DE SOUZA
| INSTITUTO SOCIAL DE SAUDE E EDUCACAO DO RIO GRANDE DO NORTE | R$ 9.464.263,68 |
| INSTITUTO PANAMERICANO DE SERVIÇOS – IPAS | R$ 4.728.048,00 |
| A M HONORATO SOBRINHO | R$ 4.502.520,00 |
| INSTITUTO POTIGUAR SOCIAL E EDUCACIONAL | R$ 3.060.956,90 |
| POTENGI POTIGUAR COMERCIO E SERVICOS LTDA | R$ 1.648.755,80 |
| A. A. DE S. WANDERLEY | R$ 1.603.144,60 |
| ADRIANA HORTENCIO DA COSTA | R$ 1.539.897,10 |
| G F QUEIROZ OLIVEIRA LTDA | R$ 1.454.622,90 |
HHI — referência pública (DOJ/EUA): competitivo (< 1.500) · moderadamente concentrado (1.500–2.500) · concentrado (> 2.500). Indicador de concentração, não juízo sobre a gestão.
| Ata / objeto | UF | Vigência |
|---|---|---|
[Portal de Compras Públicas] - Registro de preço para futura contratação de empresa especializada na prestação dos serviços de confecção, ajuste e instalação de próteses dentárias para atender as necessidades da Secretaria Municipal de Saúde da Prefeitura Municipal de Senador Elói de Souza/RN. 08449571000110-1-000141/2025-000001 | RN | vigente até 22/10/2026 |
Registro de preços para futura Contratação de empresa especializada para o fornecimento de pneus novos, câmeras de ar e protetores, destinados aos veículos que compõem a frota da Prefeitura Municipal de Senador Elói de Souza/RN 08449571000110-1-000140/2025-000006 | RN | vigente até 30/09/2026 |
Registro de preços para futura Contratação de empresa especializada para o fornecimento de pneus novos, câmeras de ar e protetores, destinados aos veículos que compõem a frota da Prefeitura Municipal de Senador Elói de Souza/RN 08449571000110-1-000140/2025-000005 | RN | vigente até 30/09/2026 |
Registro de preços para futura Contratação de empresa especializada para o fornecimento de pneus novos, câmeras de ar e protetores, destinados aos veículos que compõem a frota da Prefeitura Municipal de Senador Elói de Souza/RN 08449571000110-1-000140/2025-000004 | RN | vigente até 30/09/2026 |
Carona/adesão: outro órgão pode comprar por estas atas enquanto vigentes, sem nova licitação.
| Contrato / objeto | Fornecedor | Valor global | Vigência |
|---|---|---|---|
08449571000110-2-000104/2026 | J. DE M. MOURA SERVIÇOS LTDA - ME | R$ 230.273,54 | 20/08/2027 |
08449571000110-2-000103/2026 | BOAZ SAUDE E SEGURANCA LTDA | R$ 9.120,00 | 24/07/2027 |
08449571000110-2-000096/2026 | G F QUEIROZ OLIVEIRA LTDA | R$ 1.422.604,50 | 23/06/2027 |
08449571000110-2-000095/2026 | PLACIDIA COMÉRCIO E LICITAÇÕES LTDA | R$ 38.425,68 | 31/12/2026 |
08449571000110-2-000094/2026 | ERO LOCACOES LTDA | R$ 398.100,00 | 09/06/2027 |
08449571000110-2-000093/2026 | REAL EXECUTIVO E LOCADORA LTDA | R$ 60.000,00 | 01/12/2026 |
08449571000110-2-000090/2026 | ES SOLUCOES LTDA | R$ 14.186,70 | 12/05/2027 |
08449571000110-2-000092/2026 | TS LOCACOES E SERVICOS LTDA | R$ 404.100,00 | 11/05/2027 |
08449571000110-2-000091/2026 | INOVA BRASIL COMERCIO E SERVICOS LTDA | R$ 1.254.262,50 | 11/05/2027 |
08449571000110-2-000082/2026 | 3S VISION HOSPITALAR - COMERCIO ATACADISTA DE PRODUTOS HOSPITALARES E | R$ 4.900,00 | 04/05/2027 |
08449571000110-2-000089/2026 | ADRIANA HORTENCIO DA COSTA | R$ 1.013.476,00 | 04/05/2027 |
08449571000110-2-000088/2026 | M.C FELIPE CAMPOS - ME | R$ 65.083,50 | 31/12/2026 |
08449571000110-2-000083/2026 | 65.348.744 ARIEL CYNARA BARROS LEITE | R$ 1.238,89 | 30/04/2027 |
08449571000110-2-000079/2026 | — | R$ 8.802,00 | 31/12/2026 |
08449571000110-2-000077/2026 | — | R$ 12.937,50 | 31/12/2026 |
08449571000110-2-000087/2026 | STARMEDICAL IMPORTACAO E EXPORTACAO DE PRODUTOS HOSPITALARES LTDA | R$ 18.258,90 | 30/04/2027 |
08449571000110-2-000081/2026 | ASSOCIAÇÃO DOS AGRICULTORES FAMILIARES DA COMUNIDADE DE CAMPINAS | R$ 62.436,00 | 31/12/2026 |
08449571000110-2-000078/2026 | — | R$ 12.937,50 | 31/12/2026 |
08449571000110-2-000080/2026 | COOPERATIVA DA AGRICULTURA FAMILIAR E ECONOMIA SOLIDARIA DO POTENGI | R$ 100.633,00 | 31/12/2026 |
08449571000110-2-000084/2026 | ENDOGERAIS EQUIPAMENTOS MEDICOS LTDA | R$ 4.764,00 | 30/04/2027 |
08449571000110-2-000085/2026 | GMC DISTRIBUIDORA HOSPITALAR LTDA | R$ 2.499,95 | 29/04/2027 |
08449571000110-2-000086/2026 | MARCOS JULIANO DA SILVA LTDA | R$ 21.990,00 | 29/04/2027 |
08449571000110-2-000067/2026 | CACTOS DISTRIBUIDORA DE MEDICAMENTOS E MATERIAIS HOSPITALAR LTDA | R$ 47.185,70 | 17/04/2027 |
08449571000110-2-000069/2026 | CIRURGICA LOJAO DISTRIBUIDORA DE MATERIAL ME | R$ 23.271,50 | 17/04/2027 |
08449571000110-2-000070/2026 | LEVI MED DISTRIBUIDORA LTDA | R$ 14.855,00 | 17/04/2027 |
08449571000110-2-000073/2026 | R5 SOLUÇÕES EM SAÚDE LTDA | R$ 218.913,40 | 17/04/2027 |
08449571000110-2-000066/2026 | A. A. DE S. WANDERLEY | R$ 857.475,00 | 17/04/2027 |
08449571000110-2-000074/2026 | FP COMERCIO E SERVICO LTDA | R$ 35.048,95 | 17/04/2027 |
08449571000110-2-000072/2026 | ODONTOMASTER COMERCIO DE PRODUTOS PARA SAUDE LTDA | R$ 9.448,00 | 17/04/2027 |
08449571000110-2-000071/2026 | NACIONAL COMERCIO E REPRESENTAÇÃO EIRELI | R$ 26.551,36 | 17/04/2027 |
08449571000110-2-000068/2026 | CIRUFARMA COMERCIAL LTDA | R$ 2.481,00 | 17/04/2027 |
08449571000110-2-000076/2026 | F3C COMERCIO E SERVICO LTDA | R$ 42.924,00 | 13/04/2027 |
08449571000110-2-000075/2026 | G F QUEIROZ OLIVEIRA LTDA | R$ 32.018,40 | 10/04/2027 |
08449571000110-2-000064/2026 | PANORAMA COMERCIO DE PRODUTOS MEDICOS E FARMACEUTICOS LTDA | R$ 22.310,00 | 06/04/2027 |
08449571000110-2-000061/2026 | LEVI MED DISTRIBUIDORA LTDA | R$ 126.476,00 | 06/04/2027 |
08449571000110-2-000058/2026 | GIULLITE B MEDEIROS LTDA | R$ 5.820,00 | 06/04/2027 |
08449571000110-2-000060/2026 | CIRUFARMA COMERCIAL LTDA | R$ 140.361,00 | 06/04/2027 |
08449571000110-2-000059/2026 | MEDICINALI PRODUTOS PARA SAUDE LTDA | R$ 84.745,00 | 06/04/2027 |
08449571000110-2-000063/2026 | CIRURGICA LOJAO DISTRIBUIDORA DE MATERIAL ME | R$ 145.688,00 | 06/04/2027 |
08449571000110-2-000062/2026 | DISTRIMIX DISTRIBUIDORA DE MEDICAMENTOS LTDA | R$ 232.737,00 | 06/04/2027 |
08449571000110-2-000055/2026 | LEVI MED DISTRIBUIDORA LTDA | R$ 189.761,00 | 01/04/2027 |
08449571000110-2-000054/2026 | CIRUFARMA COMERCIAL LTDA | R$ 4.735,00 | 01/04/2027 |
08449571000110-2-000053/2026 | CACTOS DISTRIBUIDORA DE MEDICAMENTOS E MATERIAIS HOSPITALAR LTDA | R$ 29.778,00 | 01/04/2027 |
08449571000110-2-000052/2026 | A. A. DE S. WANDERLEY | R$ 279.919,60 | 01/04/2027 |
08449571000110-2-000056/2026 | PHOSPODONT LTDA | R$ 7.399,00 | 01/04/2027 |
08449571000110-2-000065/2026 | WS SOLUCOES E TECNOLOGIA EM SISTEMAS DE SAUDE LTDA | R$ 29.700,00 | 31/12/2026 |
08449571000110-2-000057/2026 | R5 SOLUÇÕES EM SAÚDE LTDA | R$ 479.141,00 | 01/04/2027 |
08449571000110-2-000049/2026 | J. R. ARAUJO LIMA CONSTRUCOES E EMPREENDIMENTOS LTDA | R$ 343.000,00 | 30/03/2027 |
08449571000110-2-000048/2026 | COMERCIO DE MOVEIS, ELETRODOMESTICO E INFORMATICA MALHEIRO LTDA | R$ 60.824,66 | 30/03/2027 |
08449571000110-2-000047/2026 | FP COMERCIO E SERVICO LTDA | R$ 7.178,00 | 27/03/2027 |
Fornecedor pessoa física é omitido por proteção de dados (LGPD).
⚖ Este perfil é montado exclusivamente sobre dados públicos — divulgação obrigatória por força do art. 8º da Lei de Acesso à Informação (12.527/2011) e dos arts. 54 e 174 da Lei 14.133/2021 (PNCP) — e do Portal da Transparência (CEIS/CNEP). Indicadores são estatística transparente (metodologia), não juízo de conduta. Contestações pelo formulário — o pedido fica registrado, não depende de e-mail, e respondemos em até 5 dias úteis.